NOAA 16 DEB

Satellite information

Favourite Embed

Satellite Type and Status

DEBRISIN ORBIT

Key statistics

Satellite NOAA 16 DEB at a glance.

Uptime

9055

Days in orbit

Revolutions

≈ 14.3

Per day

Orbit

SSO

Sun Synchronous Orbit

Inclination

98.9

Latest

Satellite identification and parameters

Extended collection of information and parameters for NOAA 16 DEB.

Object identification

Identified? True

Debris? True

Object name: NOAA 16 DEB

International designator: 2000-055CN

Object number (NORAD): 41155

Object ID (CCSDS): 41155

Country: UNITED STATES OF AMERICA (US)

Current information (Y/N): Y

RCS size: SMALL

Orbital parameters

Period: 100.483 minutes

Inclination: 98.8675 deg

SMA: 7159.578 km

Apoapsis: 796.004 km

Periapsis: 766.882 km

RAAN: 305.9046 deg

Eccentricy: 0.0020338

Argument of periapsis: 107.8624 deg

Mean anomaly: 252.4779 deg

Mean motion: 14.33084 rev/day

Mean motion (dot): 0.00003967 rev/day2

B* drag term: 0.0014599 1/REarth

Two-line elements (TLE)

Creation date: July 6, 2025, 2:46 p.m.

Reference frame: TEME

Reference center: EARTH

Epoch: July 6, 2025, 1:35 p.m. UTC

TLE line 0: 0 NOAA 16 DEB

TLE line 1: 1 41155U 00055CN 25187.56650997 .00003967 00000-0 14599-2 0 9991

TLE line 2: 2 41155 98.8675 305.9046 0020338 107.8624 252.4779 14.33084000496752

Live tracking on map

Real-time ground track for satellite NOAA 16 DEB.

In-orbit conjunctions

A list of the most updated potential collisions computed for object NOAA 16 DEB.

Target Orbit TCA Probability of collision Miss distance Type
COSMOS 1867 COOLANT LEO 2025-05-14 12:29:40 0.0001614179 159.0 (m) DEBRIS
CZ-6A DEB LEO 2025-02-28 20:17:49 0.0002522224 619.0 (m) DEBRIS
CZ-6A DEB LEO 2025-01-26 07:42:52 0.0002840979 86.0 (m) DEBRIS
CZ-6A DEB LEO 2024-12-24 21:59:01 0.000219395 926.0 (m) DEBRIS
CZ-6A DEB LEO 2024-10-24 16:10:23 0.0001412525 281.0 (m) DEBRIS

Associated space launch

The NOAA K, L and M POES satellites begin the fifth generation of improved environmental monitoring in support of NOAA missions. The instrument payload has significant improvements and additions/deletions. The instrument changes have effected the spacecraft subsystems and data formats.

NOAA 16 DEB was lifted into orbit during the mission ‘Titan II SLV | NOAA 16’, on board a Titan II SLV space rocket.

The launch took place on Sept. 21, 2000, 10:22 a.m. from Space Launch Complex 4W.

For more information about the launch, click the button.

Launch to space Titan II SLV | NOAA 16
Titan II SLV | NOAA 16

Agency: N/A

Status: Launch Successful

Launch date: Sept. 21, 2000, 10:22 a.m. UTC

Rocket: Titan II SLV

Launch pad: Space Launch Complex 4W

Location: Vandenberg SFB, CA, USA

...

Latest news about this satellite

There are no fresh news available about this satellite. Check back as we update our databases every day.


Newsletter sign-up

Weekly statistics, charts and insights to help you stay on top of the space industry.